Time,TemperatureF,DewpointF,PressureIn,WindDirection,WindDirectionDegrees,WindSpeedMPH,WindSpeedGustMPH,Humidity,HourlyPrecipIn,Conditions,Clouds,dailyrainin,SoftwareType,DateUTC
2013-01-04 00:04:00,27.1,24.0,30.36,ESE,120,0.0,0.0,88,0.00,,,0.00,WUHU216WMR968SP,2013-01-04 05:04:00,
2013-01-04 00:09:00,27.0,23.9,30.36,ESE,113,0.0,0.0,88,0.00,,,0.00,WUHU216WMR968SP,2013-01-04 05:09:00,
2013-01-04 00:14:00,27.0,23.9,30.36,ESE,113,0.0,0.0,88,0.00,,,0.00,WUHU216WMR968SP,2013-01-04 05:14:00,
2013-01-04 00:19:00,27.1,24.0,30.36,ESE,108,0.0,0.0,88,0.00,,,0.00,WUHU216WMR968SP,2013-01-04 05:19:00,
2013-01-04 00:24:00,27.1,24.0,30.36,ESE,108,0.0,0.0,88,0.00,,,0.00,WUHU216WMR968SP,2013-01-04 05:24:00,
2013-01-04 00:29:00,27.0,23.9,30.36,ESE,108,0.0,0.0,88,0.00,,,0.00,WUHU216WMR968SP,2013-01-04 05:29:00,
2013-01-04 00:34:00,27.0,24.1,30.36,ESE,108,0.0,0.0,89,0.00,,,0.00,WUHU216WMR968SP,2013-01-04 05:34:00,
2013-01-04 00:39:00,27.0,24.1,30.36,ESE,108,0.0,0.0,89,0.00,,,0.00,WUHU216WMR968SP,2013-01-04 05:39:00,
2013-01-04 00:44:00,27.1,24.2,30.36,ESE,108,0.0,0.0,89,0.00,,,0.00,WUHU216WMR968SP,2013-01-04 05:44:00,
2013-01-04 00:49:00,27.1,24.2,30.36,ESE,108,0.0,0.0,89,0.00,,,0.00,WUHU216WMR968SP,2013-01-04 05:49:00,
2013-01-04 00:54:00,27.0,24.1,30.36,ESE,108,0.0,0.0,89,0.00,,,0.00,WUHU216WMR968SP,2013-01-04 05:54:00,
2013-01-04 00:59:00,26.6,23.8,30.36,ESE,108,0.0,0.0,89,0.00,,,0.00,WUHU216WMR968SP,2013-01-04 05:59:00,
2013-01-04 01:04:00,26.8,23.9,30.39,East,98,0.0,0.0,89,0.00,,,0.00,WUHU216WMR968SP,2013-01-04 06:04:00,
2013-01-04 01:09:00,26.8,23.9,30.39,East,95,0.0,4.6,89,0.00,,,0.00,WUHU216WMR968SP,2013-01-04 06:09:00,
2013-01-04 01:15:00,27.0,24.1,30.39,East,99,0.0,4.6,89,0.00,,,0.00,WUHU216WMR968SP,2013-01-04 06:15:00,
2013-01-04 01:20:00,27.0,24.1,30.36,East,99,0.0,4.6,89,0.00,,,0.00,WUHU216WMR968SP,2013-01-04 06:20:00,
2013-01-04 01:25:00,26.8,23.9,30.36,East,99,0.0,0.0,89,0.00,,,0.00,WUHU216WMR968SP,2013-01-04 06:25:00,
2013-01-04 01:30:00,26.4,23.6,30.36,East,99,0.0,0.0,89,0.00,,,0.00,WUHU216WMR968SP,2013-01-04 06:30:00,
2013-01-04 01:35:00,26.4,23.6,30.36,East,99,0.0,0.0,89,0.00,,,0.00,WUHU216WMR968SP,2013-01-04 06:35:00,
2013-01-04 01:40:00,26.2,23.4,30.36,East,99,0.0,0.0,89,0.00,,,0.00,WUHU216WMR968SP,2013-01-04 06:40:00,
2013-01-04 01:45:00,26.2,23.4,30.36,East,99,0.0,0.0,89,0.00,,,0.00,WUHU216WMR968SP,2013-01-04 06:45:00,
2013-01-04 01:50:00,26.1,23.3,30.39,East,99,0.0,0.0,89,0.00,,,0.00,WUHU216WMR968SP,2013-01-04 06:50:00,
2013-01-04 01:55:00,25.9,23.3,30.39,East,99,0.0,0.0,90,0.00,,,0.00,WUHU216WMR968SP,2013-01-04 06:55:00,
2013-01-04 02:00:00,25.9,23.3,30.39,East,99,0.0,0.0,90,0.00,,,0.00,WUHU216WMR968SP,2013-01-04 07:00:00,
2013-01-04 02:05:00,25.7,23.1,30.36,East,99,0.0,0.0,90,0.00,,,0.00,WUHU216WMR968SP,2013-01-04 07:05:00,
2013-01-04 02:10:00,25.9,23.3,30.36,East,99,0.0,0.0,90,0.00,,,0.00,WUHU216WMR968SP,2013-01-04 07:10:00,
2013-01-04 02:15:00,25.9,23.3,30.36,East,99,0.0,0.0,90,0.00,,,0.00,WUHU216WMR968SP,2013-01-04 07:15:00,
2013-01-04 02:20:00,25.9,23.3,30.36,East,99,0.0,0.0,90,0.00,,,0.00,WUHU216WMR968SP,2013-01-04 07:20:00,
2013-01-04 02:25:00,25.5,22.9,30.36,East,99,0.0,0.0,90,0.00,,,0.00,WUHU216WMR968SP,2013-01-04 07:25:00,
2013-01-04 02:30:00,25.7,23.1,30.36,East,99,0.0,0.0,90,0.00,,,0.00,WUHU216WMR968SP,2013-01-04 07:30:00,
2013-01-04 02:35:00,25.7,23.1,30.36,East,99,0.0,0.0,90,0.00,,,0.00,WUHU216WMR968SP,2013-01-04 07:35:00,
2013-01-04 02:40:00,25.9,23.6,30.36,East,99,0.0,0.0,91,0.00,,,0.00,WUHU216WMR968SP,2013-01-04 07:40:00,
2013-01-04 02:45:00,25.5,23.2,30.36,East,99,0.0,0.0,91,0.00,,,0.00,WUHU216WMR968SP,2013-01-04 07:45:00,
2013-01-04 02:50:00,25.5,23.2,30.36,East,99,0.0,0.0,91,0.00,,,0.00,WUHU216WMR968SP,2013-01-04 07:50:00,
2013-01-04 02:55:00,25.5,23.2,30.36,East,99,0.0,0.0,91,0.00,,,0.00,WUHU216WMR968SP,2013-01-04 07:55:00,
2013-01-04 03:00:00,25.3,23.0,30.36,East,99,0.0,0.0,91,0.00,,,0.00,WUHU216WMR968SP,2013-01-04 08:00:00,
2013-01-04 03:05:00,25.5,23.2,30.36,East,99,0.0,0.0,91,0.00,,,0.00,WUHU216WMR968SP,2013-01-04 08:05:00,
2013-01-04 03:10:00,25.3,23.0,30.36,East,99,0.0,0.0,91,0.00,,,0.00,WUHU216WMR968SP,2013-01-04 08:10:00,
2013-01-04 03:15:00,25.7,23.4,30.36,East,99,0.0,0.0,91,0.00,,,0.00,WUHU216WMR968SP,2013-01-04 08:15:00,
2013-01-04 03:20:00,25.9,23.6,30.36,East,99,0.0,0.0,91,0.00,,,0.00,WUHU216WMR968SP,2013-01-04 08:20:00,
2013-01-04 03:25:00,25.9,23.6,30.36,East,99,0.0,0.0,91,0.00,,,0.00,WUHU216WMR968SP,2013-01-04 08:25:00,
2013-01-04 03:30:00,25.9,23.6,30.36,East,99,0.0,0.0,91,0.00,,,0.00,WUHU216WMR968SP,2013-01-04 08:30:00,
2013-01-04 03:35:00,25.7,23.4,30.36,East,99,0.0,0.0,91,0.00,,,0.00,WUHU216WMR968SP,2013-01-04 08:35:00,
2013-01-04 03:40:00,25.5,23.2,30.36,East,99,0.0,0.0,91,0.00,,,0.00,WUHU216WMR968SP,2013-01-04 08:40:00,
2013-01-04 03:45:00,25.3,23.0,30.36,East,99,0.0,0.0,91,0.00,,,0.00,WUHU216WMR968SP,2013-01-04 08:45:00,
2013-01-04 03:50:00,25.3,23.0,30.36,East,99,0.0,0.0,91,0.00,,,0.00,WUHU216WMR968SP,2013-01-04 08:50:00,
2013-01-04 03:56:00,25.3,23.0,30.36,East,99,0.0,0.0,91,0.00,,,0.00,WUHU216WMR968SP,2013-01-04 08:56:00,
2013-01-04 04:01:00,25.3,23.0,30.36,East,99,0.0,0.0,91,0.00,,,0.00,WUHU216WMR968SP,2013-01-04 09:01:00,
2013-01-04 04:06:00,25.2,22.9,30.36,East,99,0.0,0.0,91,0.00,,,0.00,WUHU216WMR968SP,2013-01-04 09:06:00,
2013-01-04 04:11:00,25.3,23.0,30.36,East,99,0.0,0.0,91,0.00,,,0.00,WUHU216WMR968SP,2013-01-04 09:11:00,
2013-01-04 04:16:00,25.3,23.0,30.36,East,99,0.0,0.0,91,0.00,,,0.00,WUHU216WMR968SP,2013-01-04 09:16:00,
2013-01-04 04:21:00,25.3,23.0,30.36,East,99,0.0,0.0,91,0.00,,,0.00,WUHU216WMR968SP,2013-01-04 09:21:00,
2013-01-04 04:26:00,25.3,23.0,30.36,East,99,0.0,0.0,91,0.00,,,0.00,WUHU216WMR968SP,2013-01-04 09:26:00,
2013-01-04 04:31:00,25.3,23.0,30.36,East,99,0.0,0.0,91,0.00,,,0.00,WUHU216WMR968SP,2013-01-04 09:31:00,
2013-01-04 04:36:00,25.3,23.0,30.36,East,99,0.0,0.0,91,0.00,,,0.00,WUHU216WMR968SP,2013-01-04 09:36:00,
2013-01-04 04:41:00,25.3,23.0,30.36,East,99,0.0,0.0,91,0.00,,,0.00,WUHU216WMR968SP,2013-01-04 09:41:00,
2013-01-04 04:46:00,25.3,23.0,30.36,East,99,0.0,0.0,91,0.00,,,0.00,WUHU216WMR968SP,2013-01-04 09:46:00,
2013-01-04 04:51:00,25.5,23.2,30.36,East,99,0.0,0.0,91,0.00,,,0.00,WUHU216WMR968SP,2013-01-04 09:51:00,
2013-01-04 04:56:00,25.7,23.4,30.36,East,99,0.0,0.0,91,0.00,,,0.00,WUHU216WMR968SP,2013-01-04 09:56:00,
2013-01-04 05:01:00,25.9,23.6,30.36,East,99,0.0,0.0,91,0.00,,,0.00,WUHU216WMR968SP,2013-01-04 10:01:00,
2013-01-04 05:06:00,25.5,23.2,30.36,East,99,0.0,0.0,91,0.00,,,0.00,WUHU216WMR968SP,2013-01-04 10:06:00,
2013-01-04 05:11:00,25.7,23.4,30.36,ESE,117,0.0,0.0,91,0.00,,,0.00,WUHU216WMR968SP,2013-01-04 10:11:00,
2013-01-04 05:16:00,25.9,23.6,30.36,ESE,117,0.0,0.0,91,0.00,,,0.00,WUHU216WMR968SP,2013-01-04 10:16:00,
2013-01-04 05:21:00,25.9,23.6,30.36,ESE,117,0.0,0.0,91,0.00,,,0.00,WUHU216WMR968SP,2013-01-04 10:21:00,
2013-01-04 05:26:00,25.5,23.2,30.36,ESE,117,0.0,0.0,91,0.00,,,0.00,WUHU216WMR968SP,2013-01-04 10:26:00,
2013-01-04 05:31:00,25.3,23.0,30.36,ESE,117,0.0,0.0,91,0.00,,,0.00,WUHU216WMR968SP,2013-01-04 10:31:00,
2013-01-04 05:36:00,25.3,23.0,30.36,ESE,117,0.0,0.0,91,0.00,,,0.00,WUHU216WMR968SP,2013-01-04 10:36:00,
2013-01-04 05:41:00,25.3,23.0,30.36,ESE,117,0.0,0.0,91,0.00,,,0.00,WUHU216WMR968SP,2013-01-04 10:41:00,
2013-01-04 05:46:00,25.3,23.0,30.36,ESE,117,0.0,0.0,91,0.00,,,0.00,WUHU216WMR968SP,2013-01-04 10:46:00,
2013-01-04 05:51:00,25.3,23.0,30.36,ESE,117,0.0,0.0,91,0.00,,,0.00,WUHU216WMR968SP,2013-01-04 10:51:00,
2013-01-04 05:56:00,25.0,22.7,30.36,ESE,117,0.0,0.0,91,0.00,,,0.00,WUHU216WMR968SP,2013-01-04 10:56:00,
2013-01-04 06:01:00,25.0,22.7,30.36,ESE,117,0.0,0.0,91,0.00,,,0.00,WUHU216WMR968SP,2013-01-04 11:01:00,
2013-01-04 06:06:00,25.2,22.9,30.36,ESE,117,0.0,0.0,91,0.00,,,0.00,WUHU216WMR968SP,2013-01-04 11:06:00,
2013-01-04 06:11:00,25.2,22.9,30.36,ESE,117,0.0,0.0,91,0.00,,,0.00,WUHU216WMR968SP,2013-01-04 11:11:00,
2013-01-04 06:16:00,25.0,22.7,30.36,East,92,0.0,0.0,91,0.00,,,0.00,WUHU216WMR968SP,2013-01-04 11:16:00,
2013-01-04 06:21:00,24.8,22.8,30.36,East,92,0.0,0.0,92,0.00,,,0.00,WUHU216WMR968SP,2013-01-04 11:21:00,
2013-01-04 06:26:00,25.0,22.7,30.36,East,92,0.0,0.0,91,0.00,,,0.00,WUHU216WMR968SP,2013-01-04 11:26:00,
2013-01-04 06:31:00,25.0,22.7,30.36,East,92,0.0,0.0,91,0.00,,,0.00,WUHU216WMR968SP,2013-01-04 11:31:00,
2013-01-04 06:37:00,24.8,22.8,30.39,East,92,0.0,0.0,92,0.00,,,0.00,WUHU216WMR968SP,2013-01-04 11:37:00,
2013-01-04 06:42:00,24.8,22.8,30.39,East,92,0.0,0.0,92,0.00,,,0.00,WUHU216WMR968SP,2013-01-04 11:42:00,
2013-01-04 06:47:00,24.6,22.6,30.39,East,92,0.0,0.0,92,0.00,,,0.00,WUHU216WMR968SP,2013-01-04 11:47:00,
2013-01-04 06:52:00,24.4,22.4,30.39,East,92,0.0,0.0,92,0.00,,,0.00,WUHU216WMR968SP,2013-01-04 11:52:00,
2013-01-04 06:57:00,24.4,22.4,30.39,East,92,0.0,0.0,92,0.00,,,0.00,WUHU216WMR968SP,2013-01-04 11:57:00,
2013-01-04 07:02:00,24.4,22.4,30.39,East,92,0.0,0.0,92,0.00,,,0.00,WUHU216WMR968SP,2013-01-04 12:02:00,
2013-01-04 07:07:00,24.4,22.4,30.39,East,92,0.0,0.0,92,0.00,,,0.00,WUHU216WMR968SP,2013-01-04 12:07:00,
2013-01-04 07:12:00,24.4,22.4,30.39,East,92,0.0,0.0,92,0.00,,,0.00,WUHU216WMR968SP,2013-01-04 12:12:00,
2013-01-04 07:17:00,24.3,22.3,30.39,ESE,122,0.0,0.0,92,0.00,,,0.00,WUHU216WMR968SP,2013-01-04 12:17:00,
2013-01-04 07:22:00,24.1,22.1,30.39,ESE,122,0.0,0.0,92,0.00,,,0.00,WUHU216WMR968SP,2013-01-04 12:22:00,
2013-01-04 07:27:00,24.1,22.1,30.39,ESE,122,0.0,0.0,92,0.00,,,0.00,WUHU216WMR968SP,2013-01-04 12:27:00,
2013-01-04 07:32:00,24.1,22.1,30.39,ESE,122,0.0,0.0,92,0.00,,,0.00,WUHU216WMR968SP,2013-01-04 12:32:00,
2013-01-04 07:37:00,24.1,22.3,30.41,ESE,122,0.0,0.0,93,0.00,,,0.00,WUHU216WMR968SP,2013-01-04 12:37:00,
2013-01-04 07:42:00,24.3,22.5,30.41,ESE,122,0.0,0.0,93,0.00,,,0.00,WUHU216WMR968SP,2013-01-04 12:42:00,
2013-01-04 07:47:00,24.3,22.5,30.41,ESE,122,0.0,0.0,93,0.00,,,0.00,WUHU216WMR968SP,2013-01-04 12:47:00,
2013-01-04 07:52:00,24.3,22.5,30.41,ESE,122,0.0,0.0,93,0.00,,,0.00,WUHU216WMR968SP,2013-01-04 12:52:00,
2013-01-04 07:57:00,24.4,22.6,30.41,ESE,122,0.0,0.0,93,0.00,,,0.00,WUHU216WMR968SP,2013-01-04 12:57:00,
2013-01-04 08:02:00,24.3,22.5,30.41,ESE,122,0.0,0.0,93,0.00,,,0.00,WUHU216WMR968SP,2013-01-04 13:02:00,
2013-01-04 08:07:00,24.4,22.6,30.41,ESE,122,0.0,0.0,93,0.00,,,0.00,WUHU216WMR968SP,2013-01-04 13:07:00,
2013-01-04 08:12:00,24.4,22.6,30.41,ESE,122,0.0,0.0,93,0.00,,,0.00,WUHU216WMR968SP,2013-01-04 13:12:00,
2013-01-04 08:17:00,24.6,22.8,30.41,ESE,122,0.0,0.0,93,0.00,,,0.00,WUHU216WMR968SP,2013-01-04 13:17:00,
2013-01-04 08:22:00,24.8,23.0,30.41,ESE,122,0.0,0.0,93,0.00,,,0.00,WUHU216WMR968SP,2013-01-04 13:22:00,
2013-01-04 08:27:00,24.8,23.3,30.41,ESE,122,0.0,0.0,94,0.00,,,0.00,WUHU216WMR968SP,2013-01-04 13:27:00,
2013-01-04 08:32:00,25.0,23.2,30.41,ESE,122,0.0,0.0,93,0.00,,,0.00,WUHU216WMR968SP,2013-01-04 13:32:00,
2013-01-04 08:37:00,25.2,23.4,30.41,ESE,122,0.0,0.0,93,0.00,,,0.00,WUHU216WMR968SP,2013-01-04 13:37:00,
2013-01-04 08:42:00,25.5,23.7,30.41,ESE,122,0.0,0.0,93,0.00,,,0.00,WUHU216WMR968SP,2013-01-04 13:42:00,
2013-01-04 08:47:00,25.9,24.1,30.41,ESE,122,0.0,0.0,93,0.00,,,0.00,WUHU216WMR968SP,2013-01-04 13:47:00,
2013-01-04 08:52:00,26.1,24.3,30.41,ESE,122,0.0,0.0,93,0.00,,,0.00,WUHU216WMR968SP,2013-01-04 13:52:00,
2013-01-04 08:57:00,26.2,24.4,30.41,ESE,122,0.0,0.0,93,0.00,,,0.00,WUHU216WMR968SP,2013-01-04 13:57:00,
2013-01-04 09:02:00,27.0,25.2,30.41,ESE,122,0.0,0.0,93,0.00,,,0.00,WUHU216WMR968SP,2013-01-04 14:02:00,
2013-01-04 09:07:00,28.0,26.2,30.41,ESE,122,0.0,0.0,93,0.00,,,0.00,WUHU216WMR968SP,2013-01-04 14:07:00,
2013-01-04 09:12:00,29.1,27.0,30.41,ESE,122,0.0,0.0,92,0.00,,,0.00,WUHU216WMR968SP,2013-01-04 14:12:00,
2013-01-04 09:17:00,29.8,27.7,30.41,ESE,122,0.0,0.0,92,0.00,,,0.00,WUHU216WMR968SP,2013-01-04 14:17:00,
2013-01-04 09:22:00,30.9,28.5,30.41,ESE,122,0.0,0.0,91,0.00,,,0.00,WUHU216WMR968SP,2013-01-04 14:22:00,
2013-01-04 09:28:00,32.4,29.7,30.41,ESE,122,0.0,0.0,90,0.00,,,0.00,WUHU216WMR968SP,2013-01-04 14:28:00,
2013-01-04 09:33:00,32.7,29.8,30.41,ESE,122,0.0,0.0,89,0.00,,,0.00,WUHU216WMR968SP,2013-01-04 14:33:00,
2013-01-04 09:38:00,33.4,30.2,30.41,ESE,122,0.0,0.0,88,0.00,,,0.00,WUHU216WMR968SP,2013-01-04 14:38:00,
2013-01-04 09:43:00,34.0,30.2,30.41,ESE,122,0.0,0.0,86,0.00,,,0.00,WUHU216WMR968SP,2013-01-04 14:43:00,
2013-01-04 09:48:00,34.9,32.0,30.41,ESE,121,0.0,0.0,84,0.00,,,0.00,WUHU216WMR968SP,2013-01-04 14:48:00,
2013-01-04 09:53:00,35.1,30.2,30.41,ESE,112,0.0,0.0,82,0.00,,,0.00,WUHU216WMR968SP,2013-01-04 14:53:00,
2013-01-04 09:58:00,35.2,29.7,30.41,ESE,120,0.0,0.0,80,0.00,,,0.00,WUHU216WMR968SP,2013-01-04 14:58:00,
2013-01-04 10:03:00,35.4,29.2,30.41,East,100,0.0,0.0,78,0.00,,,0.00,WUHU216WMR968SP,2013-01-04 15:03:00,
2013-01-04 10:08:00,35.4,28.9,30.44,East,101,0.0,0.0,77,0.00,,,0.00,WUHU216WMR968SP,2013-01-04 15:08:00,
2013-01-04 10:13:00,35.4,28.3,30.44,ESE,113,3.3,5.4,75,0.00,,,0.00,WUHU216WMR968SP,2013-01-04 15:13:00,
2013-01-04 10:18:00,36.1,28.7,30.44,ESE,113,0.0,5.4,74,0.00,,,0.00,WUHU216WMR968SP,2013-01-04 15:18:00,
2013-01-04 10:23:00,36.5,28.7,30.44,SE,146,0.0,3.3,73,0.00,,,0.00,WUHU216WMR968SP,2013-01-04 15:23:00,
2013-01-04 10:28:00,36.1,28.0,30.44,WSW,247,0.0,4.1,72,0.00,,,0.00,WUHU216WMR968SP,2013-01-04 15:28:00,
2013-01-04 10:33:00,36.7,28.6,30.44,West,264,0.0,4.1,72,0.00,,,0.00,WUHU216WMR968SP,2013-01-04 15:33:00,
2013-01-04 10:38:00,36.9,28.8,30.44,North,10,0.0,0.0,72,0.00,,,0.00,WUHU216WMR968SP,2013-01-04 15:38:00,
2013-01-04 10:43:00,37.4,28.6,30.44,North,10,0.0,0.0,70,0.04,,,0.04,WUHU216WMR968SP,2013-01-04 15:43:00,
2013-01-04 10:48:00,37.2,28.0,30.44,SW,235,0.0,4.6,69,0.04,,,0.04,WUHU216WMR968SP,2013-01-04 15:48:00,
2013-01-04 10:53:00,38.3,29.1,30.44,West,270,0.0,4.6,69,0.04,,,0.04,WUHU216WMR968SP,2013-01-04 15:53:00,
2013-01-04 10:58:00,39.9,30.6,30.44,NW,324,0.0,0.0,69,0.04,,,0.04,WUHU216WMR968SP,2013-01-04 15:58:00,
2013-01-04 11:03:00,40.6,32.0,30.44,West,259,0.0,4.6,68,0.04,,,0.04,WUHU216WMR968SP,2013-01-04 16:03:00,
2013-01-04 11:08:00,41.2,30.8,30.44,WNW,293,0.0,5.4,66,0.04,,,0.04,WUHU216WMR968SP,2013-01-04 16:08:00,
2013-01-04 11:13:00,41.4,30.6,30.44,WNW,286,0.0,5.4,65,0.04,,,0.04,WUHU216WMR968SP,2013-01-04 16:13:00,
2013-01-04 11:18:00,41.5,29.9,30.44,West,263,0.0,4.6,63,0.04,,,0.04,WUHU216WMR968SP,2013-01-04 16:18:00,
2013-01-04 11:23:00,41.4,29.0,30.44,West,266,0.0,6.0,61,0.04,,,0.04,WUHU216WMR968SP,2013-01-04 16:23:00,
2013-01-04 11:28:00,42.1,29.3,30.44,North,11,3.3,6.0,60,0.04,,,0.04,WUHU216WMR968SP,2013-01-04 16:28:00,
2013-01-04 11:33:00,42.1,28.0,30.44,SW,224,0.0,4.6,57,0.04,,,0.04,WUHU216WMR968SP,2013-01-04 16:33:00,
2013-01-04 11:38:00,42.3,28.6,30.44,West,264,0.0,4.6,58,0.00,,,0.04,WUHU216WMR968SP,2013-01-04 16:38:00,
2013-01-04 11:43:00,41.7,27.2,30.44,SW,232,3.3,7.4,56,0.00,,,0.04,WUHU216WMR968SP,2013-01-04 16:43:00,
2013-01-04 11:48:00,42.1,27.6,30.44,NNW,339,0.0,7.4,56,0.00,,,0.04,WUHU216WMR968SP,2013-01-04 16:48:00,
2013-01-04 11:53:00,42.8,27.8,30.44,NNW,338,0.0,6.0,55,0.00,,,0.04,WUHU216WMR968SP,2013-01-04 16:53:00,
2013-01-04 11:58:00,43.7,28.6,30.44,West,281,0.0,4.6,55,0.00,,,0.04,WUHU216WMR968SP,2013-01-04 16:58:00,
2013-01-04 12:03:00,44.2,28.6,30.44,ENE,64,0.0,5.4,54,0.00,,,0.04,WUHU216WMR968SP,2013-01-04 17:03:00,
2013-01-04 12:08:00,43.9,28.3,30.41,West,261,3.3,5.4,54,0.00,,,0.04,WUHU216WMR968SP,2013-01-04 17:08:00,
2013-01-04 12:13:00,43.5,27.5,30.41,SW,228,0.0,8.1,53,0.00,,,0.04,WUHU216WMR968SP,2013-01-04 17:13:00,
2013-01-04 12:18:00,43.5,27.5,30.41,WSW,238,0.0,8.1,53,0.00,,,0.04,WUHU216WMR968SP,2013-01-04 17:18:00,
2013-01-04 12:23:00,44.1,28.1,30.41,WNW,286,0.0,6.0,53,0.00,,,0.04,WUHU216WMR968SP,2013-01-04 17:23:00,
2013-01-04 12:28:00,45.0,28.4,30.41,West,270,4.1,6.0,52,0.00,,,0.04,WUHU216WMR968SP,2013-01-04 17:28:00,
2013-01-04 12:34:00,44.6,28.0,30.41,North,4,3.3,6.0,52,0.00,,,0.04,WUHU216WMR968SP,2013-01-04 17:34:00,
2013-01-04 12:39:00,45.0,28.4,30.41,NNE,17,3.3,6.0,52,0.00,,,0.04,WUHU216WMR968SP,2013-01-04 17:39:00,
2013-01-04 12:44:00,44.6,27.6,30.41,NE,41,0.0,6.8,51,0.00,,,0.04,WUHU216WMR968SP,2013-01-04 17:44:00,
2013-01-04 12:49:00,44.6,27.6,30.41,NE,37,4.6,6.8,51,0.00,,,0.04,WUHU216WMR968SP,2013-01-04 17:49:00,
2013-01-04 12:54:00,45.0,27.9,30.41,West,273,0.0,6.0,51,0.00,,,0.04,WUHU216WMR968SP,2013-01-04 17:54:00,
2013-01-04 12:59:00,45.0,27.4,30.41,North,0,0.0,4.6,50,0.00,,,0.04,WUHU216WMR968SP,2013-01-04 17:59:00,
2013-01-04 13:04:00,45.0,27.4,30.39,NW,316,0.0,4.6,50,0.00,,,0.04,WUHU216WMR968SP,2013-01-04 18:04:00,
2013-01-04 13:09:00,45.9,28.8,30.39,NNW,345,0.0,4.6,51,0.00,,,0.04,WUHU216WMR968SP,2013-01-04 18:09:00,
2013-01-04 13:14:00,46.2,28.5,30.39,SW,214,4.1,4.6,50,0.00,,,0.04,WUHU216WMR968SP,2013-01-04 18:14:00,
2013-01-04 13:19:00,45.9,28.3,30.39,SSW,203,0.0,5.4,50,0.00,,,0.04,WUHU216WMR968SP,2013-01-04 18:19:00,
2013-01-04 13:24:00,45.0,27.4,30.39,NE,39,0.0,6.0,50,0.00,,,0.04,WUHU216WMR968SP,2013-01-04 18:24:00,
2013-01-04 13:29:00,45.3,27.2,30.39,SW,220,0.0,6.0,49,0.00,,,0.04,WUHU216WMR968SP,2013-01-04 18:29:00,
2013-01-04 13:34:00,45.3,27.2,30.39,East,95,4.1,7.4,49,0.00,,,0.04,WUHU216WMR968SP,2013-01-04 18:34:00,
2013-01-04 13:39:00,45.5,27.4,30.39,WSW,247,0.0,7.4,49,0.00,,,0.04,WUHU216WMR968SP,2013-01-04 18:39:00,
2013-01-04 13:44:00,45.7,27.6,30.39,ESE,118,4.6,6.0,49,0.00,,,0.04,WUHU216WMR968SP,2013-01-04 18:44:00,
2013-01-04 13:49:00,45.0,26.9,30.39,ESE,102,5.4,6.0,49,0.00,,,0.04,WUHU216WMR968SP,2013-01-04 18:49:00,
2013-01-04 13:54:00,45.9,28.3,30.39,NNW,348,4.1,6.0,50,0.00,,,0.04,WUHU216WMR968SP,2013-01-04 18:54:00,
2013-01-04 13:59:00,46.0,27.8,30.39,NNE,27,0.0,5.4,49,0.00,,,0.04,WUHU216WMR968SP,2013-01-04 18:59:00,
2013-01-04 14:04:00,46.4,28.2,30.39,ENE,58,4.1,5.4,49,0.00,,,0.04,WUHU216WMR968SP,2013-01-04 19:04:00,
2013-01-04 14:09:00,46.2,28.0,30.39,West,281,4.1,6.0,49,0.00,,,0.04,WUHU216WMR968SP,2013-01-04 19:09:00,
2013-01-04 14:14:00,46.4,27.7,30.39,NNE,33,0.0,6.0,48,0.00,,,0.04,WUHU216WMR968SP,2013-01-04 19:14:00,
2013-01-04 14:19:00,46.2,28.0,30.36,NNW,348,4.6,6.0,49,0.00,,,0.04,WUHU216WMR968SP,2013-01-04 19:19:00,
2013-01-04 14:24:00,46.4,27.7,30.36,WSW,244,0.0,6.0,48,0.00,,,0.04,WUHU216WMR968SP,2013-01-04 19:24:00,
2013-01-04 14:29:00,46.8,28.1,30.36,West,281,0.0,4.1,48,0.00,,,0.04,WUHU216WMR968SP,2013-01-04 19:29:00,
2013-01-04 14:34:00,46.9,28.2,30.36,NNE,23,3.3,6.0,48,0.00,,,0.04,WUHU216WMR968SP,2013-01-04 19:34:00,
2013-01-04 14:39:00,46.6,27.9,30.36,NW,316,3.3,6.0,48,0.00,,,0.04,WUHU216WMR968SP,2013-01-04 19:39:00,
2013-01-04 14:44:00,46.8,28.1,30.36,North,1,0.0,6.0,48,0.00,,,0.04,WUHU216WMR968SP,2013-01-04 19:44:00,
2013-01-04 14:49:00,46.4,27.2,30.36,East,90,0.0,4.6,47,0.00,,,0.04,WUHU216WMR968SP,2013-01-04 19:49:00,
2013-01-04 14:54:00,45.9,27.2,30.36,ESE,109,0.0,4.6,48,0.00,,,0.04,WUHU216WMR968SP,2013-01-04 19:54:00,
2013-01-04 14:59:00,46.0,27.3,30.36,SE,124,0.0,4.6,48,0.00,,,0.04,WUHU216WMR968SP,2013-01-04 19:59:00,
2013-01-04 15:04:00,45.9,27.2,30.36,East,98,3.3,5.4,48,0.00,,,0.04,WUHU216WMR968SP,2013-01-04 20:04:00,
2013-01-04 15:09:00,45.7,27.1,30.36,North,1,0.0,5.4,48,0.00,,,0.04,WUHU216WMR968SP,2013-01-04 20:09:00,
2013-01-04 15:14:00,45.9,27.2,30.36,NE,48,0.0,4.6,48,0.00,,,0.04,WUHU216WMR968SP,2013-01-04 20:14:00,
2013-01-04 15:19:00,46.6,27.9,30.36,North,357,0.0,6.0,48,0.00,,,0.04,WUHU216WMR968SP,2013-01-04 20:19:00,
2013-01-04 15:24:00,46.0,26.8,30.36,SSW,199,3.3,6.0,47,0.00,,,0.04,WUHU216WMR968SP,2013-01-04 20:24:00,
2013-01-04 15:29:00,46.0,27.3,30.36,SW,217,0.0,6.0,48,0.00,,,0.04,WUHU216WMR968SP,2013-01-04 20:29:00,
2013-01-04 15:35:00,46.0,26.8,30.36,SW,222,4.1,7.4,47,0.00,,,0.04,WUHU216WMR968SP,2013-01-04 20:35:00,
2013-01-04 15:40:00,46.2,27.5,30.36,NNW,336,0.0,7.4,48,0.00,,,0.04,WUHU216WMR968SP,2013-01-04 20:40:00,
2013-01-04 15:45:00,46.4,27.2,30.36,WNW,297,3.3,6.0,47,0.00,,,0.04,WUHU216WMR968SP,2013-01-04 20:45:00,
2013-01-04 15:50:00,46.6,27.4,30.36,NNE,25,0.0,6.0,47,0.00,,,0.04,WUHU216WMR968SP,2013-01-04 20:50:00,
2013-01-04 15:55:00,46.4,27.2,30.36,NNE,25,0.0,4.1,47,0.00,,,0.04,WUHU216WMR968SP,2013-01-04 20:55:00,
2013-01-04 16:00:00,46.4,27.2,30.36,WNW,300,4.1,6.0,47,0.00,,,0.04,WUHU216WMR968SP,2013-01-04 21:00:00,
2013-01-04 16:05:00,46.6,27.9,30.36,NW,316,0.0,6.0,48,0.00,,,0.04,WUHU216WMR968SP,2013-01-04 21:05:00,
2013-01-04 16:10:00,46.6,27.4,30.36,WNW,300,0.0,4.1,47,0.00,,,0.04,WUHU216WMR968SP,2013-01-04 21:10:00,
2013-01-04 16:15:00,46.4,27.2,30.36,NW,322,0.0,0.0,47,0.00,,,0.04,WUHU216WMR968SP,2013-01-04 21:15:00,
2013-01-04 16:20:00,46.4,27.2,30.36,NW,321,0.0,0.0,47,0.00,,,0.04,WUHU216WMR968SP,2013-01-04 21:20:00,
2013-01-04 16:25:00,46.2,27.0,30.36,NNW,331,0.0,0.0,47,0.00,,,0.04,WUHU216WMR968SP,2013-01-04 21:25:00,
2013-01-04 16:30:00,46.0,26.8,30.36,NNW,332,0.0,0.0,47,0.00,,,0.04,WUHU216WMR968SP,2013-01-04 21:30:00,
2013-01-04 16:35:00,45.9,26.7,30.36,NNW,332,0.0,0.0,47,0.00,,,0.04,WUHU216WMR968SP,2013-01-04 21:35:00,
2013-01-04 16:40:00,45.5,26.3,30.36,NNW,332,0.0,0.0,47,0.00,,,0.04,WUHU216WMR968SP,2013-01-04 21:40:00,
2013-01-04 16:45:00,45.3,26.7,30.36,NNW,332,0.0,0.0,48,0.00,,,0.04,WUHU216WMR968SP,2013-01-04 21:45:00,
2013-01-04 16:50:00,45.1,26.5,30.36,NNW,332,0.0,0.0,48,0.00,,,0.04,WUHU216WMR968SP,2013-01-04 21:50:00,
2013-01-04 16:55:00,44.8,26.2,30.36,WSW,255,0.0,0.0,48,0.00,,,0.04,WUHU216WMR968SP,2013-01-04 21:55:00,
2013-01-04 17:00:00,44.1,25.6,30.36,WNW,290,0.0,0.0,48,0.00,,,0.04,WUHU216WMR968SP,2013-01-04 22:00:00,
2013-01-04 17:05:00,43.7,25.2,30.36,NNW,348,0.0,0.0,48,0.00,,,0.04,WUHU216WMR968SP,2013-01-04 22:05:00,
2013-01-04 17:10:00,43.3,24.8,30.36,NNW,330,0.0,4.1,48,0.00,,,0.04,WUHU216WMR968SP,2013-01-04 22:10:00,
2013-01-04 17:15:00,43.0,24.6,30.36,North,1,0.0,4.1,48,0.00,,,0.04,WUHU216WMR968SP,2013-01-04 22:15:00,
2013-01-04 17:20:00,42.8,24.4,30.36,North,1,0.0,3.3,48,0.00,,,0.04,WUHU216WMR968SP,2013-01-04 22:20:00,
2013-01-04 17:25:00,42.3,23.9,30.36,North,0,0.0,0.0,48,0.00,,,0.04,WUHU216WMR968SP,2013-01-04 22:25:00,
2013-01-04 17:31:00,41.9,23.6,30.36,North,0,0.0,0.0,48,0.00,,,0.04,WUHU216WMR968SP,2013-01-04 22:31:00,
2013-01-04 17:36:00,41.7,23.4,30.36,North,353,0.0,0.0,48,0.00,,,0.04,WUHU216WMR968SP,2013-01-04 22:36:00,
2013-01-04 17:41:00,41.4,23.6,30.36,North,353,0.0,0.0,49,0.00,,,0.04,WUHU216WMR968SP,2013-01-04 22:41:00,
2013-01-04 17:46:00,41.0,22.7,30.36,NNW,345,0.0,0.0,48,0.00,,,0.04,WUHU216WMR968SP,2013-01-04 22:46:00,
2013-01-04 17:51:00,40.6,22.9,30.36,NNW,331,3.3,4.6,49,0.00,,,0.04,WUHU216WMR968SP,2013-01-04 22:51:00,
2013-01-04 17:56:00,40.5,22.8,30.36,NNW,342,0.0,4.6,49,0.00,,,0.04,WUHU216WMR968SP,2013-01-04 22:56:00,
2013-01-04 18:01:00,40.5,22.8,30.36,NNW,335,0.0,4.6,49,0.00,,,0.04,WUHU216WMR968SP,2013-01-04 23:01:00,
2013-01-04 18:06:00,40.1,22.4,30.39,North,353,0.0,4.6,49,0.00,,,0.04,WUHU216WMR968SP,2013-01-04 23:06:00,
2013-01-04 18:11:00,39.9,22.2,30.39,North,6,0.0,4.6,49,0.00,,,0.04,WUHU216WMR968SP,2013-01-04 23:11:00,
2013-01-04 18:16:00,39.9,22.2,30.39,NNW,342,0.0,4.6,49,0.00,,,0.04,WUHU216WMR968SP,2013-01-04 23:16:00,
2013-01-04 18:21:00,39.7,22.0,30.39,North,357,0.0,4.6,49,0.00,,,0.04,WUHU216WMR968SP,2013-01-04 23:21:00,
2013-01-04 18:26:00,39.4,22.2,30.39,North,350,0.0,4.6,50,0.00,,,0.04,WUHU216WMR968SP,2013-01-04 23:26:00,
2013-01-04 18:31:00,38.1,21.5,30.39,North,350,0.0,0.0,51,0.00,,,0.04,WUHU216WMR968SP,2013-01-04 23:31:00,
2013-01-04 18:36:00,37.6,21.5,30.39,North,350,0.0,0.0,52,0.00,,,0.04,WUHU216WMR968SP,2013-01-04 23:36:00,
2013-01-04 18:41:00,37.4,21.3,30.39,North,350,0.0,0.0,52,0.00,,,0.04,WUHU216WMR968SP,2013-01-04 23:41:00,
2013-01-04 18:46:00,36.7,21.2,30.39,North,350,0.0,0.0,53,0.00,,,0.04,WUHU216WMR968SP,2013-01-04 23:46:00,
2013-01-04 18:51:00,35.8,20.8,30.39,NNE,26,0.0,0.0,54,0.00,,,0.04,WUHU216WMR968SP,2013-01-04 23:51:00,
2013-01-04 18:56:00,35.2,21.1,30.39,NNE,26,0.0,0.0,56,0.00,,,0.04,WUHU216WMR968SP,2013-01-04 23:56:00,
2013-01-04 19:01:00,34.5,20.9,30.39,ENE,72,0.0,0.0,57,0.00,,,0.04,WUHU216WMR968SP,2013-01-05 00:01:00,
2013-01-04 19:06:00,34.2,21.0,30.39,ENE,72,0.0,0.0,58,0.00,,,0.04,WUHU216WMR968SP,2013-01-05 00:06:00,
2013-01-04 19:11:00,34.0,21.2,30.39,ENE,72,0.0,0.0,59,0.00,,,0.04,WUHU216WMR968SP,2013-01-05 00:11:00,
2013-01-04 19:16:00,33.4,21.0,30.39,ENE,72,0.0,0.0,60,0.00,,,0.04,WUHU216WMR968SP,2013-01-05 00:16:00,
2013-01-04 19:21:00,32.9,21.4,30.39,ENE,72,0.0,0.0,62,0.00,,,0.04,WUHU216WMR968SP,2013-01-05 00:21:00,
2013-01-04 19:26:00,32.5,21.4,30.39,ENE,72,0.0,0.0,63,0.00,,,0.04,WUHU216WMR968SP,2013-01-05 00:26:00,
2013-01-04 19:31:00,32.4,21.6,30.39,ENE,72,0.0,0.0,64,0.00,,,0.04,WUHU216WMR968SP,2013-01-05 00:31:00,
2013-01-04 19:36:00,32.2,21.4,30.39,ESE,105,0.0,0.0,64,0.00,,,0.04,WUHU216WMR968SP,2013-01-05 00:36:00,
2013-01-04 19:41:00,32.0,21.6,30.39,ESE,105,0.0,0.0,65,0.00,,,0.04,WUHU216WMR968SP,2013-01-05 00:41:00,
2013-01-04 19:46:00,31.3,21.3,30.39,ESE,104,0.0,0.0,66,0.00,,,0.04,WUHU216WMR968SP,2013-01-05 00:46:00,
2013-01-04 19:51:00,31.1,21.5,30.41,ESE,104,0.0,0.0,67,0.00,,,0.04,WUHU216WMR968SP,2013-01-05 00:51:00,
2013-01-04 19:56:00,31.1,21.8,30.41,ESE,104,0.0,0.0,68,0.00,,,0.04,WUHU216WMR968SP,2013-01-05 00:56:00,
2013-01-04 20:01:00,31.1,21.8,30.41,ESE,104,0.0,0.0,68,0.00,,,0.04,WUHU216WMR968SP,2013-01-05 01:01:00,
2013-01-04 20:06:00,31.1,21.8,30.41,ESE,110,0.0,0.0,68,0.00,,,0.04,WUHU216WMR968SP,2013-01-05 01:06:00,
2013-01-04 20:11:00,30.7,21.5,30.41,ESE,110,0.0,0.0,68,0.00,,,0.04,WUHU216WMR968SP,2013-01-05 01:11:00,
2013-01-04 20:16:00,30.6,21.7,30.41,ESE,110,0.0,0.0,69,0.00,,,0.04,WUHU216WMR968SP,2013-01-05 01:16:00,
2013-01-04 20:21:00,30.2,21.7,30.41,ESE,110,0.0,0.0,70,0.00,,,0.04,WUHU216WMR968SP,2013-01-05 01:21:00,
2013-01-04 20:28:00,30.2,21.7,30.41,ESE,110,0.0,0.0,70,0.00,,,0.04,WUHU216WMR968SP,2013-01-05 01:28:00,
2013-01-04 20:34:00,29.8,21.6,30.41,ESE,110,0.0,0.0,71,0.00,,,0.04,WUHU216WMR968SP,2013-01-05 01:34:00,
2013-01-04 20:39:00,29.7,21.5,30.41,ESE,110,0.0,0.0,71,0.00,,,0.04,WUHU216WMR968SP,2013-01-05 01:39:00,
2013-01-04 20:57:00,29.5,22.0,30.41,ESE,110,0.0,0.0,73,0.00,,,0.04,WUHU216WMR968SP,2013-01-05 01:57:00,
2013-01-04 21:07:00,29.5,22.0,30.41,ESE,110,0.0,0.0,73,0.00,,,0.04,WUHU216WMR968SP,2013-01-05 02:07:00,
2013-01-04 21:12:00,29.5,22.0,30.41,ESE,110,0.0,0.0,73,0.00,,,0.04,WUHU216WMR968SP,2013-01-05 02:12:00,
2013-01-04 21:17:00,28.9,21.7,30.41,ESE,110,0.0,0.0,74,0.00,,,0.04,WUHU216WMR968SP,2013-01-05 02:17:00,
2013-01-04 21:23:00,29.3,22.1,30.41,ESE,110,0.0,0.0,74,0.00,,,0.04,WUHU216WMR968SP,2013-01-05 02:23:00,
2013-01-04 21:28:00,29.3,22.1,30.41,ESE,110,0.0,0.0,74,0.00,,,0.04,WUHU216WMR968SP,2013-01-05 02:28:00,
2013-01-04 21:33:00,29.3,22.1,30.41,ESE,110,0.0,0.0,74,0.00,,,0.04,WUHU216WMR968SP,2013-01-05 02:33:00,
2013-01-04 21:38:00,29.5,22.3,30.41,ESE,110,0.0,0.0,74,0.00,,,0.04,WUHU216WMR968SP,2013-01-05 02:38:00,
2013-01-04 21:43:00,29.1,22.2,30.41,ESE,110,0.0,0.0,75,0.00,,,0.04,WUHU216WMR968SP,2013-01-05 02:43:00,
2013-01-04 21:48:00,28.6,21.7,30.41,ESE,110,0.0,0.0,75,0.00,,,0.04,WUHU216WMR968SP,2013-01-05 02:48:00,
2013-01-04 21:53:00,28.8,22.2,30.41,ESE,106,0.0,0.0,76,0.00,,,0.04,WUHU216WMR968SP,2013-01-05 02:53:00,
2013-01-04 21:58:00,28.4,21.8,30.41,East,98,0.0,0.0,76,0.00,,,0.04,WUHU216WMR968SP,2013-01-05 02:58:00,
2013-01-04 22:03:00,28.4,22.1,30.39,East,98,0.0,0.0,77,0.00,,,0.04,WUHU216WMR968SP,2013-01-05 03:03:00,
2013-01-04 22:09:00,28.4,22.1,30.39,East,98,0.0,0.0,77,0.00,,,0.04,WUHU216WMR968SP,2013-01-05 03:09:00,
2013-01-04 22:14:00,28.0,21.7,30.39,East,98,0.0,0.0,77,0.00,,,0.04,WUHU216WMR968SP,2013-01-05 03:14:00,
2013-01-04 22:19:00,28.0,21.7,30.41,East,98,0.0,0.0,77,0.00,,,0.04,WUHU216WMR968SP,2013-01-05 03:19:00,
2013-01-04 22:24:00,28.2,21.9,30.41,East,98,0.0,0.0,77,0.00,,,0.04,WUHU216WMR968SP,2013-01-05 03:24:00,
2013-01-04 22:29:00,28.0,22.0,30.41,East,84,5.4,6.0,78,0.00,,,0.04,WUHU216WMR968SP,2013-01-05 03:29:00,
2013-01-04 22:34:00,27.5,21.6,30.39,East,83,4.1,6.0,78,0.00,,,0.04,WUHU216WMR968SP,2013-01-05 03:34:00,
2013-01-04 22:39:00,27.7,22.0,30.39,NE,35,3.3,5.4,79,0.00,,,0.04,WUHU216WMR968SP,2013-01-05 03:39:00,
2013-01-04 22:44:00,28.6,22.9,30.39,East,96,0.0,5.4,79,0.00,,,0.04,WUHU216WMR968SP,2013-01-05 03:44:00,
2013-01-04 22:49:00,28.8,22.8,30.39,SSW,211,0.0,5.4,78,0.00,,,0.04,WUHU216WMR968SP,2013-01-05 03:49:00,
2013-01-04 22:54:00,29.1,23.1,30.39,SSW,211,0.0,0.0,78,0.00,,,0.04,WUHU216WMR968SP,2013-01-05 03:54:00,
2013-01-04 22:59:00,29.5,23.5,30.39,SSE,160,0.0,0.0,78,0.00,,,0.04,WUHU216WMR968SP,2013-01-05 03:59:00,
2013-01-04 23:04:00,29.5,23.2,30.39,SSE,160,0.0,0.0,77,0.00,,,0.04,WUHU216WMR968SP,2013-01-05 04:04:00,
2013-01-04 23:09:00,29.5,23.2,30.39,SSE,160,0.0,0.0,77,0.00,,,0.04,WUHU216WMR968SP,2013-01-05 04:09:00,
2013-01-04 23:14:00,29.5,23.2,30.39,ESE,102,0.0,0.0,77,0.00,,,0.04,WUHU216WMR968SP,2013-01-05 04:14:00,
2013-01-04 23:19:00,29.5,23.2,30.39,ENE,74,3.3,5.4,77,0.00,,,0.04,WUHU216WMR968SP,2013-01-05 04:19:00,
2013-01-04 23:24:00,29.5,22.9,30.39,ENE,64,3.3,5.4,76,0.00,,,0.04,WUHU216WMR968SP,2013-01-05 04:24:00,
2013-01-04 23:29:00,28.8,22.2,30.39,ENE,64,0.0,4.6,76,0.00,,,0.04,WUHU216WMR968SP,2013-01-05 04:29:00,
2013-01-04 23:34:00,28.8,22.2,30.39,East,81,0.0,3.3,76,0.00,,,0.04,WUHU216WMR968SP,2013-01-05 04:34:00,
2013-01-04 23:39:00,28.6,22.0,30.39,East,81,0.0,0.0,76,0.00,,,0.04,WUHU216WMR968SP,2013-01-05 04:39:00,
2013-01-04 23:44:00,28.4,22.1,30.39,East,81,0.0,0.0,77,0.00,,,0.04,WUHU216WMR968SP,2013-01-05 04:44:00,
2013-01-04 23:49:00,28.0,21.7,30.39,East,82,0.0,0.0,77,0.00,,,0.04,WUHU216WMR968SP,2013-01-05 04:49:00,
2013-01-04 23:54:00,27.9,21.9,30.39,East,82,0.0,0.0,78,0.00,,,0.04,WUHU216WMR968SP,2013-01-05 04:54:00,
2013-01-04 23:59:00,27.7,21.8,30.39,East,82,0.0,0.0,78,0.00,,,0.04,WUHU216WMR968SP,2013-01-05 04:59:00,